Location: ?????????
(38.0736°N, 23.2119°E)
Time: 14:29:29
(UTC+00:00)

Cosmos 2151 Rocket - Visible Passes

Search period start: 12 July 2024 00:00
Search period end: 22 July 2024 00:00
Orbit: 613 x 640 km, 82.5° (Epoch: 11 July)

Date Brightness Start Highest point End Pass type
(mag) Time Alt. Az. Time Alt. Az. Time Alt. Az.
12 Jul 3.5 18:57:49 10° N 19:02:15 79° E 19:06:14 13° S visible
13 Jul 4.4 19:17:40 10° NNW 19:21:55 49° W 19:26:11 10° SSW visible
14 Jul 5.7 19:37:57 10° NW 19:41:29 24° W 19:45:03 10° SW visible
15 Jul 3.8 18:19:07 10° N 18:23:27 51° E 18:27:46 10° SSE visible
15 Jul 6.4 19:59:17 10° WNW 20:00:56 12° W 20:02:36 10° WSW visible
16 Jul 3.8 18:38:45 10° N 18:43:11 76° W 18:47:36 10° S visible
17 Jul 5.1 18:58:45 10° NNW 19:02:47 36° W 19:06:51 10° SSW visible
18 Jul 6.2 19:19:18 10° NW 19:22:19 18° W 19:25:20 10° SW visible
20 Jul 4.4 18:19:43 10° NNW 18:24:04 55° W 18:28:25 10° S visible
21 Jul 5.7 18:39:54 10° NNW 18:43:38 27° W 18:47:23 10° SSW visible
